Time,TemperatureF,DewpointF,PressureIn,WindDirection,WindDirectionDegrees,WindSpeedMPH,WindSpeedGustMPH,Humidity,HourlyPrecipIn,Conditions,Clouds,dailyrainin,SoftwareType,DateUTC
2013-07-12 00:02:00,64.0,60.0,30.04,NNW,336,0.0,0.0,86,0.00,,,0.00,,2013-07-12 05:02:00,
2013-07-12 00:11:00,64.0,60.0,30.05,NNW,336,0.0,0.0,86,0.00,,,0.00,,2013-07-12 05:11:00,
2013-07-12 00:22:00,64.0,60.0,30.05,NNW,336,0.0,0.0,86,0.00,,,0.00,,2013-07-12 05:22:00,
2013-07-12 00:32:00,64.0,60.0,30.05,NNW,336,0.0,0.0,86,0.00,,,0.00,,2013-07-12 05:32:00,
2013-07-12 00:53:00,64.0,60.0,30.05,NNW,336,0.0,0.0,87,0.00,,,0.00,,2013-07-12 05:53:00,
2013-07-12 01:01:00,64.0,60.0,30.05,NNW,336,0.0,0.0,87,0.00,,,0.00,,2013-07-12 06:01:00,
2013-07-12 01:11:00,64.0,60.0,30.05,NNW,336,0.0,0.0,86,0.00,,,0.00,,2013-07-12 06:11:00,
2013-07-12 01:22:00,64.0,60.0,30.05,NNW,336,0.0,0.0,86,0.00,,,0.00,,2013-07-12 06:22:00,
2013-07-12 01:33:00,63.0,59.0,30.05,NNW,336,0.0,0.0,86,0.00,,,0.00,,2013-07-12 06:33:00,
2013-07-12 01:42:00,63.0,59.0,30.05,NNW,336,0.0,0.0,87,0.00,,,0.00,,2013-07-12 06:42:00,
2013-07-12 01:52:00,63.0,59.0,30.05,NNW,336,0.0,0.0,87,0.00,,,0.00,,2013-07-12 06:52:00,
2013-07-12 02:02:00,63.0,59.0,30.05,NNW,336,0.0,0.0,87,0.00,,,0.00,,2013-07-12 07:02:00,
2013-07-12 02:12:00,63.0,59.0,30.05,NNW,336,0.0,0.0,88,0.00,,,0.00,,2013-07-12 07:12:00,
2013-07-12 02:22:00,63.0,59.0,30.05,NNW,336,0.0,0.0,88,0.00,,,0.00,,2013-07-12 07:22:00,
2013-07-12 02:32:00,62.0,58.0,30.05,NNW,336,0.0,0.0,88,0.00,,,0.00,,2013-07-12 07:32:00,
2013-07-12 02:43:00,62.0,59.0,30.05,NNW,336,0.0,0.0,89,0.00,,,0.00,,2013-07-12 07:43:00,
2013-07-12 02:52:00,62.0,59.0,30.05,NNW,336,0.0,0.0,89,0.00,,,0.00,,2013-07-12 07:52:00,
2013-07-12 03:01:00,62.0,58.0,30.05,NNW,336,0.0,0.0,88,0.00,,,0.00,,2013-07-12 08:01:00,
2013-07-12 03:21:00,62.0,58.0,30.05,NNW,336,0.0,0.0,88,0.00,,,0.00,,2013-07-12 08:21:00,
2013-07-12 03:32:00,62.0,58.0,30.06,NNW,336,0.0,0.0,88,0.00,,,0.00,,2013-07-12 08:32:00,
2013-07-12 03:42:00,61.0,58.0,30.06,NNW,336,0.0,0.0,89,0.00,,,0.00,,2013-07-12 08:42:00,
2013-07-12 03:53:00,61.0,58.0,30.06,NNW,336,0.0,0.0,89,0.00,,,0.00,,2013-07-12 08:53:00,
2013-07-12 04:02:00,61.0,58.0,30.06,NNW,336,0.0,0.0,89,0.00,,,0.00,,2013-07-12 09:02:00,
2013-07-12 04:12:00,61.0,58.0,30.06,NNW,347,0.0,0.0,89,0.00,,,0.00,,2013-07-12 09:12:00,
2013-07-12 04:22:00,61.0,58.0,30.06,NNW,347,0.0,0.0,89,0.00,,,0.00,,2013-07-12 09:22:00,
2013-07-12 04:32:00,61.0,58.0,30.06,North,350,0.0,0.0,89,0.00,,,0.00,,2013-07-12 09:32:00,
2013-07-12 04:43:00,61.0,58.0,30.06,North,350,0.0,0.0,89,0.00,,,0.00,,2013-07-12 09:43:00,
2013-07-12 04:52:00,61.0,58.0,30.06,North,350,0.0,0.0,89,0.00,,,0.00,,2013-07-12 09:52:00,
2013-07-12 05:01:00,61.0,58.0,30.07,North,350,0.0,0.0,89,0.00,,,0.00,,2013-07-12 10:01:00,
2013-07-12 05:11:00,61.0,58.0,30.08,North,350,0.0,0.0,90,0.00,,,0.00,,2013-07-12 10:11:00,
2013-07-12 05:22:00,61.0,58.0,30.08,North,350,0.0,0.0,90,0.00,,,0.00,,2013-07-12 10:22:00,
2013-07-12 05:33:00,60.0,57.0,30.08,North,5,0.0,0.0,90,0.00,,,0.00,,2013-07-12 10:33:00,
2013-07-12 05:42:00,60.0,57.0,30.09,North,5,0.0,0.0,90,0.00,,,0.00,,2013-07-12 10:42:00,
2013-07-12 05:52:00,60.0,57.0,30.09,North,5,0.0,0.0,90,0.00,,,0.00,,2013-07-12 10:52:00,
2013-07-12 06:02:00,60.0,57.0,30.09,North,5,0.0,0.0,91,0.00,,,0.00,,2013-07-12 11:02:00,
2013-07-12 06:12:00,60.0,57.0,30.10,North,5,0.0,0.0,90,0.00,,,0.00,,2013-07-12 11:12:00,
2013-07-12 06:22:00,60.0,57.0,30.10,North,5,0.0,0.0,90,0.00,,,0.00,,2013-07-12 11:22:00,
2013-07-12 06:32:00,61.0,58.0,30.09,North,360,0.0,0.0,91,0.00,,,0.00,,2013-07-12 11:32:00,
2013-07-12 06:43:00,61.0,58.0,30.10,North,360,0.0,0.0,90,0.00,,,0.00,,2013-07-12 11:43:00,
2013-07-12 06:52:00,61.0,58.0,30.10,North,360,0.0,0.0,90,0.00,,,0.00,,2013-07-12 11:52:00,
2013-07-12 07:02:00,62.0,59.0,30.09,North,360,0.0,0.0,89,0.00,,,0.00,,2013-07-12 12:02:00,
2013-07-12 07:11:00,64.0,60.0,30.10,NNE,30,0.0,0.0,86,0.00,,,0.00,,2013-07-12 12:11:00,
2013-07-12 07:22:00,64.0,60.0,30.10,NNE,30,0.0,0.0,86,0.00,,,0.00,,2013-07-12 12:22:00,
2013-07-12 07:32:00,64.0,59.0,30.10,North,5,0.0,0.0,85,0.00,,,0.00,,2013-07-12 12:32:00,
2013-07-12 07:52:00,65.0,60.0,30.11,NNE,30,0.0,0.0,85,0.00,,,0.00,,2013-07-12 12:52:00,
2013-07-12 08:01:00,66.0,61.0,30.11,NE,38,0.0,0.0,83,0.00,,,0.00,,2013-07-12 13:01:00,
2013-07-12 08:12:00,68.0,62.0,30.10,NNE,14,0.0,0.0,82,0.00,,,0.00,,2013-07-12 13:12:00,
2013-07-12 08:22:00,68.0,62.0,30.10,NNE,14,0.0,0.0,82,0.00,,,0.00,,2013-07-12 13:22:00,
2013-07-12 08:32:00,70.0,63.0,30.11,ENE,62,0.0,0.0,78,0.00,,,0.00,,2013-07-12 13:32:00,
2013-07-12 08:43:00,71.0,63.0,30.11,NNE,15,0.0,0.0,76,0.00,,,0.00,,2013-07-12 13:43:00,
2013-07-12 08:53:00,71.0,63.0,30.11,NNE,15,0.0,0.0,76,0.00,,,0.00,,2013-07-12 13:53:00,
2013-07-12 09:02:00,72.0,63.0,30.11,ENE,66,0.0,0.0,73,0.00,,,0.00,,2013-07-12 14:02:00,
2013-07-12 09:22:00,73.0,64.0,30.11,ENE,64,0.0,0.0,73,0.00,,,0.00,,2013-07-12 14:22:00,
2013-07-12 09:32:00,74.0,64.0,30.12,NNW,336,0.0,0.0,71,0.00,,,0.00,,2013-07-12 14:32:00,
2013-07-12 09:44:00,74.0,63.0,30.11,North,5,0.0,0.0,68,0.00,,,0.00,,2013-07-12 14:44:00,
2013-07-12 09:53:00,74.0,63.0,30.11,North,5,0.0,0.0,68,0.00,,,0.00,,2013-07-12 14:53:00,
2013-07-12 10:02:00,75.0,63.0,30.11,ENE,65,0.0,0.0,66,0.00,,,0.00,,2013-07-12 15:02:00,
2013-07-12 10:11:00,76.0,63.0,30.11,NE,40,0.0,1.0,64,0.00,,,0.00,,2013-07-12 15:11:00,
2013-07-12 10:22:00,76.0,63.0,30.11,NE,40,0.0,1.0,64,0.00,,,0.00,,2013-07-12 15:22:00,
2013-07-12 10:33:00,77.0,63.0,30.11,North,5,0.0,0.0,63,0.00,,,0.00,,2013-07-12 15:33:00,
2013-07-12 10:43:00,77.0,62.0,30.10,ENE,58,0.0,0.0,59,0.00,,,0.00,,2013-07-12 15:43:00,
2013-07-12 10:53:00,77.0,62.0,30.10,ENE,58,0.0,0.0,59,0.00,,,0.00,,2013-07-12 15:53:00,
2013-07-12 11:01:00,77.0,61.0,30.10,ESE,103,0.0,9.0,57,0.00,,,0.00,,2013-07-12 16:01:00,
2013-07-12 11:11:00,78.0,61.0,30.10,North,5,0.0,5.0,55,0.00,,,0.00,,2013-07-12 16:11:00,
2013-07-12 11:22:00,78.0,61.0,30.10,North,5,0.0,5.0,55,0.00,,,0.00,,2013-07-12 16:22:00,
2013-07-12 11:32:00,79.0,60.0,30.10,NNE,30,1.0,6.0,53,0.00,,,0.00,,2013-07-12 16:32:00,
2013-07-12 11:43:00,78.0,60.0,30.10,East,90,0.0,7.0,54,0.00,,,0.00,,2013-07-12 16:43:00,
2013-07-12 12:06:00,79.0,60.0,30.10,East,86,0.0,3.0,53,0.00,,,0.00,,2013-07-12 17:06:00,
2013-07-12 12:14:00,80.0,61.0,30.09,East,79,0.0,0.0,53,0.00,,,0.00,,2013-07-12 17:14:00,
2013-07-12 12:24:00,80.0,61.0,30.09,East,79,0.0,0.0,53,0.00,,,0.00,,2013-07-12 17:24:00,
2013-07-12 12:45:00,80.0,60.0,30.10,NNW,344,1.0,7.0,51,0.00,,,0.00,,2013-07-12 17:45:00,
2013-07-12 12:53:00,80.0,60.0,30.10,NNW,344,1.0,7.0,51,0.00,,,0.00,,2013-07-12 17:53:00,
2013-07-12 13:07:00,80.0,61.0,30.09,NE,46,0.0,7.0,52,0.00,,,0.00,,2013-07-12 18:07:00,
2013-07-12 13:14:00,80.0,62.0,30.09,NW,313,0.0,6.0,55,0.00,,,0.00,,2013-07-12 18:14:00,
2013-07-12 13:27:00,80.0,62.0,30.09,NW,313,0.0,6.0,55,0.00,,,0.00,,2013-07-12 18:27:00,
2013-07-12 13:34:00,80.0,61.0,30.09,NNE,13,0.0,8.0,52,0.00,,,0.00,,2013-07-12 18:34:00,
2013-07-12 13:47:00,81.0,59.0,30.09,NE,34,0.0,8.0,47,0.00,,,0.00,,2013-07-12 18:47:00,
2013-07-12 13:55:00,81.0,59.0,30.09,NE,34,0.0,8.0,47,0.00,,,0.00,,2013-07-12 18:55:00,
2013-07-12 14:05:00,82.0,61.0,30.08,NE,52,0.0,7.0,49,0.00,,,0.00,,2013-07-12 19:05:00,
2013-07-12 14:15:00,81.0,59.0,30.08,ENE,69,0.0,2.0,48,0.00,,,0.00,,2013-07-12 19:15:00,
2013-07-12 14:23:00,81.0,59.0,30.08,ENE,69,0.0,2.0,48,0.00,,,0.00,,2013-07-12 19:23:00,
2013-07-12 14:33:00,81.0,62.0,30.08,North,351,0.0,0.0,53,0.00,,,0.00,,2013-07-12 19:33:00,
2013-07-12 14:45:00,81.0,59.0,30.07,East,88,0.0,1.0,48,0.00,,,0.00,,2013-07-12 19:45:00,
2013-07-12 15:03:00,82.0,61.0,30.07,East,101,0.0,0.0,49,0.00,,,0.00,,2013-07-12 20:03:00,
2013-07-12 15:13:00,82.0,61.0,30.07,NNW,344,0.0,2.0,49,0.00,,,0.00,,2013-07-12 20:13:00,
2013-07-12 15:24:00,82.0,61.0,30.07,NNW,344,0.0,2.0,49,0.00,,,0.00,,2013-07-12 20:24:00,
2013-07-12 15:34:00,82.0,59.0,30.07,East,85,0.0,0.0,46,0.00,,,0.00,,2013-07-12 20:34:00,
2013-07-12 15:44:00,82.0,60.0,30.07,North,9,0.0,0.0,47,0.00,,,0.00,,2013-07-12 20:44:00,
2013-07-12 15:54:00,82.0,60.0,30.07,North,9,0.0,0.0,47,0.00,,,0.00,,2013-07-12 20:54:00,
2013-07-12 16:03:00,83.0,61.0,30.06,NW,324,0.0,0.0,47,0.00,,,0.00,,2013-07-12 21:03:00,
2013-07-12 16:25:00,83.0,59.0,30.06,ENE,63,0.0,0.0,44,0.00,,,0.00,,2013-07-12 21:25:00,
2013-07-12 16:35:00,83.0,59.0,30.05,East,87,0.0,0.0,44,0.00,,,0.00,,2013-07-12 21:35:00,
2013-07-12 17:04:00,84.0,59.0,30.05,NE,50,0.0,0.0,43,0.00,,,0.00,,2013-07-12 22:04:00,
2013-07-12 17:16:00,83.0,62.0,30.04,NE,47,0.0,0.0,50,0.00,,,0.00,,2013-07-12 22:16:00,
2013-07-12 17:24:00,83.0,62.0,30.04,NE,47,0.0,0.0,50,0.00,,,0.00,,2013-07-12 22:24:00,
2013-07-12 17:33:00,83.0,61.0,30.04,NNE,14,0.0,0.0,47,0.00,,,0.00,,2013-07-12 22:33:00,
2013-07-12 17:44:00,83.0,60.0,30.04,NE,43,0.0,0.0,46,0.00,,,0.00,,2013-07-12 22:44:00,
2013-07-12 17:54:00,83.0,60.0,30.04,NE,43,0.0,0.0,46,0.00,,,0.00,,2013-07-12 22:54:00,
2013-07-12 18:04:00,83.0,61.0,30.04,ENE,67,0.0,0.0,47,0.00,,,0.00,,2013-07-12 23:04:00,
2013-07-12 18:13:00,83.0,61.0,30.04,NNW,337,0.0,6.0,48,0.00,,,0.00,,2013-07-12 23:13:00,
2013-07-12 18:35:00,81.0,61.0,30.03,North,355,0.0,3.0,50,0.00,,,0.00,,2013-07-12 23:35:00,
2013-07-12 18:43:00,82.0,63.0,30.03,North,360,0.0,0.0,52,0.00,,,0.00,,2013-07-12 23:43:00,
2013-07-12 18:54:00,82.0,63.0,30.03,North,360,0.0,0.0,52,0.00,,,0.00,,2013-07-12 23:54:00,
2013-07-12 19:06:00,81.0,61.0,30.03,North,351,0.0,0.0,51,0.00,,,0.00,,2013-07-13 00:06:00,
2013-07-12 19:16:00,81.0,63.0,30.03,NNE,24,0.0,0.0,54,0.00,,,0.00,,2013-07-13 00:16:00,
2013-07-12 19:25:00,81.0,63.0,30.03,NNE,24,0.0,0.0,54,0.00,,,0.00,,2013-07-13 00:25:00,
2013-07-12 19:33:00,80.0,63.0,30.03,North,355,0.0,0.0,56,0.00,,,0.00,,2013-07-13 00:33:00,
2013-07-12 19:54:00,79.0,65.0,30.03,North,355,0.0,0.0,62,0.00,,,0.00,,2013-07-13 00:54:00,
2013-07-12 20:24:00,78.0,64.0,30.04,North,355,0.0,0.0,63,0.00,,,0.00,,2013-07-13 01:24:00,
2013-07-12 20:37:00,76.0,62.0,30.04,North,355,0.0,0.0,63,0.00,,,0.00,,2013-07-13 01:37:00,
2013-07-12 20:55:00,76.0,63.0,30.03,North,355,0.0,0.0,64,0.00,,,0.00,,2013-07-13 01:55:00,
2013-07-12 21:05:00,72.0,62.0,30.04,North,355,0.0,0.0,72,0.00,,,0.00,,2013-07-13 02:05:00,
2013-07-12 21:14:00,72.0,62.0,30.04,North,355,0.0,0.0,72,0.00,,,0.00,,2013-07-13 02:14:00,
2013-07-12 21:24:00,72.0,62.0,30.04,North,355,0.0,0.0,72,0.00,,,0.00,,2013-07-13 02:24:00,
2013-07-12 21:36:00,70.0,62.0,30.05,North,355,0.0,0.0,76,0.00,,,0.00,,2013-07-13 02:36:00,
2013-07-12 21:46:00,69.0,62.0,30.06,North,355,0.0,0.0,78,0.00,,,0.00,,2013-07-13 02:46:00,
2013-07-12 21:55:00,69.0,62.0,30.06,North,355,0.0,0.0,78,0.00,,,0.00,,2013-07-13 02:55:00,
2013-07-12 22:05:00,69.0,62.0,30.06,North,355,0.0,0.0,79,0.00,,,0.00,,2013-07-13 03:05:00,
2013-07-12 22:13:00,69.0,62.0,30.07,North,355,0.0,0.0,79,0.00,,,0.00,,2013-07-13 03:13:00,
2013-07-12 22:37:00,69.0,62.0,30.06,North,355,0.0,0.0,78,0.00,,,0.00,,2013-07-13 03:37:00,
2013-07-12 22:44:00,68.0,62.0,30.07,North,355,0.0,0.0,80,0.00,,,0.00,,2013-07-13 03:44:00,
2013-07-12 22:55:00,68.0,62.0,30.07,North,355,0.0,0.0,80,0.00,,,0.00,,2013-07-13 03:55:00,
2013-07-12 23:01:00,67.0,62.0,30.07,North,355,0.0,0.0,83,0.00,,,0.00,,2013-07-13 04:01:00,
2013-07-12 23:12:00,66.0,61.0,30.06,North,355,0.0,0.0,84,0.00,,,0.00,,2013-07-13 04:12:00,
2013-07-12 23:32:00,66.0,61.0,30.07,North,355,0.0,0.0,85,0.00,,,0.00,,2013-07-13 04:32:00,
2013-07-12 23:43:00,65.0,61.0,30.07,North,355,0.0,0.0,87,0.00,,,0.00,,2013-07-13 04:43:00,
2013-07-12 23:52:00,65.0,61.0,30.07,North,355,0.0,0.0,87,0.00,,,0.00,,2013-07-13 04:52:00,